COSMOS 715

Satellite information

Favourite Embed

Satellite Type and Status

PAYLOADIN ORBIT

Key statistics

Satellite COSMOS 715 at a glance.

Uptime

18335

Days in orbit

Revolutions

≈ 12.4

Per day

Orbit

LEO

Low Earth Orbit

Inclination

74.0

Latest

Satellite identification and parameters

Extended collection of information and parameters for COSMOS 715.

Object identification

Identified? True

Debris? False

Object name: COSMOS 715

International designator: 1975-016E

Object number (NORAD): 7682

Object ID (CCSDS): 7682

Country: COMMONWEALTH OF INDEPENDENT STATES (CIS)

Current information (Y/N): Y

RCS size: MEDIUM

Orbital parameters

Period: 115.687 minutes

Inclination: 74.0044 deg

SMA: 7864.716 km

Apoapsis: 1504.005 km

Periapsis: 1469.157 km

RAAN: 339.0434 deg

Eccentricy: 0.0022155

Argument of periapsis: 318.3224 deg

Mean anomaly: 116.8738 deg

Mean motion: 12.44738716 rev/day

Mean motion (dot): 0.00000004 rev/day2

B* drag term: 0.00013945 1/REarth

Two-line elements (TLE)

Creation date: May 10, 2025, 2:32 a.m.

Reference frame: TEME

Reference center: EARTH

Epoch: May 9, 2025, 6:32 p.m. UTC

TLE line 0: 0 COSMOS 715

TLE line 1: 1 07682U 75016E 25129.77278707 .00000004 00000-0 13945-3 0 9995

TLE line 2: 2 07682 74.0044 339.0434 0022155 318.3224 116.8738 12.44738716851683

Live tracking on map

Real-time ground track for satellite COSMOS 715.

In-orbit conjunctions

There are no conjunctions computed for COSMOS 715, at the moment. Check back to stay up to date, as we update our databases every day.

Go to all conjunctions

Associated space launch

Military communications satellites

COSMOS 715 was lifted into orbit during the mission ‘Kosmos-3M | Strela-1M 81-88’, on board a Kosmos-3M space rocket.

The launch took place on Feb. 28, 1975, 2:01 p.m. from 132/2.

For more information about the launch, click the button.

Launch to space Kosmos-3M | Strela-1M 81-88
Kosmos-3M | Strela-1M 81-88

Agency: N/A

Status: Launch Successful

Launch date: Feb. 28, 1975, 2:01 p.m. UTC

Rocket: Kosmos-3M

Launch pad: 132/2

Location: Plesetsk Cosmodrome, Russian Federation

...

Latest news about this satellite

There are no fresh news available about this satellite. Check back as we update our databases every day.


Newsletter sign-up

Weekly statistics, charts and insights to help you stay on top of the space industry.